Time,TemperatureF,DewpointF,PressureIn,WindDirection,WindDirectionDegrees,WindSpeedMPH,WindSpeedGustMPH,Humidity,HourlyPrecipIn,Conditions,Clouds,dailyrainin,SoftwareType,DateUTC
2013-12-01 00:00:00,34.0,34.0,30.22,NW,323,0.0,0.0,100,0.00,,---,0.00,VWS V14.01,2013-12-01 05:00:00,
2013-12-01 00:10:00,33.8,33.8,30.22,NW,323,0.0,0.0,100,0.00,,---,0.00,VWS V14.01,2013-12-01 05:10:00,
2013-12-01 00:20:00,33.8,33.8,30.22,NW,323,0.0,0.0,100,0.00,,---,0.00,VWS V14.01,2013-12-01 05:20:00,
2013-12-01 00:30:00,33.8,33.8,30.21,NW,323,0.0,0.0,100,0.00,,---,0.00,VWS V14.01,2013-12-01 05:30:00,
2013-12-01 00:40:00,33.7,33.7,30.21,NW,323,0.0,0.0,100,0.00,,---,0.00,VWS V14.01,2013-12-01 05:40:00,
2013-12-01 00:50:00,33.7,33.7,30.21,NW,323,0.0,0.0,100,0.00,,---,0.00,VWS V14.01,2013-12-01 05:50:00,
2013-12-01 01:00:00,33.5,33.5,30.20,NW,323,0.0,0.0,100,0.00,,---,0.00,VWS V14.01,2013-12-01 06:00:00,
2013-12-01 01:10:00,33.4,33.4,30.20,NW,323,0.0,0.0,100,0.00,,---,0.00,VWS V14.01,2013-12-01 06:10:00,
2013-12-01 01:20:00,33.2,33.2,30.20,NW,323,0.0,0.0,100,0.00,,---,0.00,VWS V14.01,2013-12-01 06:20:00,
2013-12-01 01:30:00,32.9,32.9,30.19,NW,323,0.0,0.0,100,0.00,,---,0.00,VWS V14.01,2013-12-01 06:30:00,
2013-12-01 01:40:00,32.8,32.8,30.19,NW,323,0.0,0.0,100,0.00,,---,0.00,VWS V14.01,2013-12-01 06:40:00,
2013-12-01 01:50:00,32.7,32.7,30.19,NW,323,0.0,0.0,100,0.00,,---,0.00,VWS V14.01,2013-12-01 06:50:00,
2013-12-01 02:00:00,32.5,32.5,30.19,NW,323,0.0,0.0,100,0.00,,---,0.00,VWS V14.01,2013-12-01 07:00:00,
2013-12-01 02:10:00,32.4,32.4,30.19,NW,323,0.0,0.0,100,0.00,,---,0.00,VWS V14.01,2013-12-01 07:10:00,
2013-12-01 02:20:00,32.2,32.2,30.18,NW,323,0.0,0.0,100,0.00,,---,0.00,VWS V14.01,2013-12-01 07:20:00,
2013-12-01 02:30:00,31.9,31.9,30.18,NW,323,0.0,0.0,100,0.00,,---,0.00,VWS V14.01,2013-12-01 07:30:00,
2013-12-01 02:40:00,31.8,31.8,30.18,NW,323,0.0,0.0,100,0.00,,---,0.00,VWS V14.01,2013-12-01 07:40:00,
2013-12-01 02:50:00,31.6,31.6,30.18,NW,323,0.0,0.0,100,0.00,,---,0.00,VWS V14.01,2013-12-01 07:50:00,
2013-12-01 03:00:00,31.3,31.3,30.17,NW,323,0.0,0.0,100,0.00,,---,0.00,VWS V14.01,2013-12-01 08:00:00,
2013-12-01 03:10:00,31.2,31.2,30.17,NW,323,0.0,0.0,100,0.00,,---,0.00,VWS V14.01,2013-12-01 08:10:00,
2013-12-01 03:20:00,31.2,31.2,30.16,NW,309,0.0,1.0,100,0.00,,---,0.00,VWS V14.01,2013-12-01 08:20:00,
2013-12-01 03:30:00,31.3,31.3,30.16,NW,309,0.0,0.0,100,0.00,,---,0.00,VWS V14.01,2013-12-01 08:30:00,
2013-12-01 03:40:00,31.5,31.5,30.16,NW,309,0.0,0.0,100,0.00,,---,0.00,VWS V14.01,2013-12-01 08:40:00,
2013-12-01 03:50:00,31.5,31.5,30.15,NW,309,0.0,0.0,100,0.00,,---,0.00,VWS V14.01,2013-12-01 08:50:00,
2013-12-01 04:00:00,31.2,31.2,30.15,NW,309,0.0,0.0,100,0.00,,---,0.00,VWS V14.01,2013-12-01 09:00:00,
2013-12-01 04:10:00,31.0,31.0,30.15,NW,309,0.0,0.0,100,0.00,,---,0.00,VWS V14.01,2013-12-01 09:10:00,
2013-12-01 04:20:00,30.9,30.9,30.15,NW,309,0.0,0.0,100,0.00,,---,0.00,VWS V14.01,2013-12-01 09:20:00,
2013-12-01 04:30:00,30.6,30.6,30.14,NW,309,0.0,0.0,100,0.00,,---,0.00,VWS V14.01,2013-12-01 09:30:00,
2013-12-01 04:40:00,30.4,30.4,30.14,NW,309,0.0,0.0,100,0.00,,---,0.00,VWS V14.01,2013-12-01 09:40:00,
2013-12-01 04:50:00,30.3,30.3,30.15,NW,309,0.0,0.0,100,0.00,,---,0.00,VWS V14.01,2013-12-01 09:50:00,
2013-12-01 05:00:00,30.1,30.1,30.14,NW,309,0.0,0.0,100,0.00,,---,0.00,VWS V14.01,2013-12-01 10:00:00,
2013-12-01 05:10:00,30.0,30.0,30.14,NW,309,0.0,0.0,100,0.00,,---,0.00,VWS V14.01,2013-12-01 10:10:00,
2013-12-01 05:20:00,30.0,30.0,30.14,NW,309,0.0,0.0,100,0.00,,---,0.00,VWS V14.01,2013-12-01 10:20:00,
2013-12-01 05:30:00,30.0,30.0,30.14,NW,309,0.0,0.0,100,0.00,,---,0.00,VWS V14.01,2013-12-01 10:30:00,
2013-12-01 05:40:00,29.8,29.8,30.14,NW,309,0.0,0.0,100,0.00,,---,0.00,VWS V14.01,2013-12-01 10:40:00,
2013-12-01 05:50:00,29.7,29.7,30.15,NW,309,0.0,0.0,100,0.00,,---,0.00,VWS V14.01,2013-12-01 10:50:00,
2013-12-01 06:00:00,29.7,29.7,30.15,NW,309,0.0,0.0,100,0.00,,---,0.00,VWS V14.01,2013-12-01 11:00:00,
2013-12-01 06:10:00,29.7,29.7,30.15,NW,309,0.0,0.0,100,0.00,,---,0.00,VWS V14.01,2013-12-01 11:10:00,
2013-12-01 06:20:00,29.5,29.5,30.14,NW,309,0.0,0.0,100,0.00,,---,0.00,VWS V14.01,2013-12-01 11:20:00,
2013-12-01 06:30:00,29.4,29.4,30.14,NW,309,0.0,0.0,100,0.00,,---,0.00,VWS V14.01,2013-12-01 11:30:00,
2013-12-01 06:40:00,29.3,29.3,30.14,NW,309,0.0,0.0,100,0.00,,---,0.00,VWS V14.01,2013-12-01 11:40:00,
2013-12-01 06:50:00,29.1,29.1,30.14,NW,309,0.0,0.0,100,0.00,,---,0.00,VWS V14.01,2013-12-01 11:50:00,
2013-12-01 07:00:00,29.0,29.0,30.14,NW,309,0.0,0.0,100,0.00,,---,0.00,VWS V14.01,2013-12-01 12:00:00,
2013-12-01 07:10:00,28.8,28.8,30.14,NW,309,0.0,0.0,100,0.00,,---,0.00,VWS V14.01,2013-12-01 12:10:00,
2013-12-01 07:20:00,28.8,28.8,30.14,NW,309,0.0,0.0,100,0.00,,---,0.00,VWS V14.01,2013-12-01 12:20:00,
2013-12-01 07:30:00,28.7,28.7,30.14,NW,309,0.0,0.0,100,0.00,,---,0.00,VWS V14.01,2013-12-01 12:30:00,
2013-12-01 07:40:00,28.8,28.8,30.14,NW,309,0.0,0.0,100,0.00,,---,0.00,VWS V14.01,2013-12-01 12:40:00,
2013-12-01 07:50:00,29.0,29.0,30.14,NW,309,0.0,0.0,100,0.00,,---,0.00,VWS V14.01,2013-12-01 12:50:00,
2013-12-01 08:00:00,29.5,29.5,30.13,NW,309,0.0,0.0,100,0.00,,---,0.00,VWS V14.01,2013-12-01 13:00:00,
2013-12-01 08:10:00,30.0,30.0,30.13,NW,309,0.0,0.0,100,0.00,,---,0.00,VWS V14.01,2013-12-01 13:10:00,
2013-12-01 08:20:00,30.9,30.9,30.13,NW,309,0.0,0.0,100,0.00,,---,0.00,VWS V14.01,2013-12-01 13:20:00,
2013-12-01 08:30:00,31.8,31.8,30.13,NW,309,0.0,0.0,100,0.00,,---,0.00,VWS V14.01,2013-12-01 13:30:00,
2013-12-01 08:40:00,33.4,33.4,30.13,NW,309,0.0,0.0,100,0.00,,---,0.00,VWS V14.01,2013-12-01 13:40:00,
2013-12-01 08:50:00,35.5,35.5,30.13,NW,309,0.0,0.0,100,0.00,,---,0.00,VWS V14.01,2013-12-01 13:50:00,
2013-12-01 09:00:00,37.6,37.6,30.13,NW,309,0.0,0.0,100,0.00,,---,0.00,VWS V14.01,2013-12-01 14:00:00,
2013-12-01 09:10:00,38.6,38.6,30.13,NW,309,0.0,0.0,100,0.00,,---,0.00,VWS V14.01,2013-12-01 14:10:00,
2013-12-01 09:20:00,40.5,40.2,30.13,NW,309,0.0,0.0,99,0.00,,---,0.00,VWS V14.01,2013-12-01 14:20:00,
2013-12-01 09:30:00,42.1,40.2,30.12,NW,309,0.0,0.0,93,0.00,,---,0.00,VWS V14.01,2013-12-01 14:30:00,
2013-12-01 09:40:00,42.5,40.1,30.12,NW,309,0.0,0.0,91,0.00,,---,0.00,VWS V14.01,2013-12-01 14:40:00,
2013-12-01 09:50:00,42.2,39.8,30.12,NW,309,0.0,0.0,91,0.00,,---,0.00,VWS V14.01,2013-12-01 14:50:00,
2013-12-01 10:00:00,42.9,40.2,30.12,NW,309,0.0,0.0,90,0.00,,---,0.00,VWS V14.01,2013-12-01 15:00:00,
2013-12-01 10:10:00,43.3,40.3,30.12,NW,309,0.0,0.0,89,0.00,,---,0.00,VWS V14.01,2013-12-01 15:10:00,
2013-12-01 10:20:00,44.6,41.3,30.11,NW,309,0.0,0.0,88,0.00,,---,0.00,VWS V14.01,2013-12-01 15:20:00,
2013-12-01 10:30:00,46.0,41.1,30.11,NW,306,0.0,0.0,83,0.00,,---,0.00,VWS V14.01,2013-12-01 15:30:00,
2013-12-01 10:40:00,46.7,41.2,30.11,NW,306,0.0,0.0,81,0.00,,---,0.00,VWS V14.01,2013-12-01 15:40:00,
2013-12-01 10:50:00,48.0,41.8,30.10,SW,219,0.0,0.0,79,0.00,,---,0.00,VWS V14.01,2013-12-01 15:50:00,
2013-12-01 11:00:00,48.9,41.7,30.09,WSW,250,0.0,1.0,76,0.00,,---,0.00,VWS V14.01,2013-12-01 16:00:00,
2013-12-01 11:10:00,49.8,41.2,30.09,WSW,254,0.0,5.0,72,0.00,,---,0.00,VWS V14.01,2013-12-01 16:10:00,
2013-12-01 11:20:00,49.9,41.2,30.09,NNW,330,0.0,4.0,72,0.00,,---,0.00,VWS V14.01,2013-12-01 16:20:00,
2013-12-01 11:30:00,50.5,42.2,30.08,NNW,342,0.0,0.0,73,0.00,,---,0.00,VWS V14.01,2013-12-01 16:30:00,
2013-12-01 11:40:00,51.7,41.5,30.08,WNW,295,0.0,0.0,68,0.00,,---,0.00,VWS V14.01,2013-12-01 16:40:00,
2013-12-01 11:50:00,52.6,42.0,30.07,SSW,199,0.0,0.0,67,0.00,,---,0.00,VWS V14.01,2013-12-01 16:50:00,
2013-12-01 12:00:00,52.9,41.1,30.05,SE,126,0.0,1.0,64,0.00,,---,0.00,VWS V14.01,2013-12-01 17:00:00,
2013-12-01 12:10:00,53.5,42.0,30.05,South,172,0.0,0.0,65,0.00,,---,0.00,VWS V14.01,2013-12-01 17:10:00,
2013-12-01 12:20:00,54.1,41.8,30.04,South,188,0.0,0.0,63,0.00,,---,0.00,VWS V14.01,2013-12-01 17:20:00,
2013-12-01 12:30:00,54.4,42.1,30.03,WSW,241,0.0,2.0,63,0.00,,---,0.00,VWS V14.01,2013-12-01 17:30:00,
2013-12-01 12:40:00,55.1,41.5,30.03,WSW,241,0.0,0.0,60,0.00,,---,0.00,VWS V14.01,2013-12-01 17:40:00,
2013-12-01 12:50:00,55.7,41.2,30.02,WSW,241,0.0,1.0,58,0.00,,---,0.00,VWS V14.01,2013-12-01 17:50:00,
2013-12-01 13:00:00,55.9,41.8,30.01,WNW,292,0.0,3.0,59,0.00,,---,0.00,VWS V14.01,2013-12-01 18:00:00,
2013-12-01 13:10:00,56.5,41.5,30.01,WSW,257,0.0,1.0,57,0.00,,---,0.00,VWS V14.01,2013-12-01 18:10:00,
2013-12-01 13:20:00,56.3,41.7,30.00,WSW,258,0.0,2.0,58,0.00,,---,0.00,VWS V14.01,2013-12-01 18:20:00,
2013-12-01 13:30:00,57.5,41.5,29.99,WSW,257,0.0,0.0,55,0.00,,---,0.00,VWS V14.01,2013-12-01 18:30:00,
2013-12-01 13:40:00,58.3,42.2,29.99,SSW,195,0.0,0.0,55,0.00,,---,0.00,VWS V14.01,2013-12-01 18:40:00,
2013-12-01 13:50:00,58.4,42.3,29.98,WSW,246,0.0,0.0,55,0.00,,---,0.00,VWS V14.01,2013-12-01 18:50:00,
2013-12-01 14:00:00,58.4,40.9,29.97,WSW,246,0.0,2.0,52,0.00,,---,0.00,VWS V14.01,2013-12-01 19:00:00,
2013-12-01 14:10:00,58.1,39.6,29.97,WSW,250,0.0,0.0,50,0.00,,---,0.00,VWS V14.01,2013-12-01 19:10:00,
2013-12-01 14:20:00,58.0,40.0,29.97,WSW,253,0.0,0.0,51,0.00,,---,0.00,VWS V14.01,2013-12-01 19:20:00,
2013-12-01 14:30:00,58.1,39.6,29.97,WSW,253,0.0,0.0,50,0.00,,---,0.00,VWS V14.01,2013-12-01 19:30:00,
2013-12-01 14:40:00,58.6,39.5,29.97,WSW,253,0.0,0.0,49,0.00,,---,0.00,VWS V14.01,2013-12-01 19:40:00,
2013-12-01 14:50:00,58.1,40.6,29.96,WSW,253,0.0,0.0,52,0.00,,---,0.00,VWS V14.01,2013-12-01 19:50:00,
2013-12-01 15:00:00,58.1,40.6,29.96,WSW,253,0.0,0.0,52,0.00,,---,0.00,VWS V14.01,2013-12-01 20:00:00,
2013-12-01 15:10:00,57.8,40.3,29.96,WSW,253,0.0,0.0,52,0.00,,---,0.00,VWS V14.01,2013-12-01 20:10:00,
2013-12-01 15:20:00,57.6,39.6,29.95,WSW,253,0.0,0.0,51,0.00,,---,0.00,VWS V14.01,2013-12-01 20:20:00,
2013-12-01 15:30:00,57.2,39.2,29.94,WSW,253,0.0,0.0,51,0.00,,---,0.00,VWS V14.01,2013-12-01 20:30:00,
2013-12-01 15:40:00,57.2,40.2,29.94,WSW,253,0.0,0.0,53,0.00,,---,0.00,VWS V14.01,2013-12-01 20:40:00,
2013-12-01 15:50:00,57.0,40.1,29.94,WSW,253,0.0,0.0,53,0.00,,---,0.00,VWS V14.01,2013-12-01 20:50:00,
2013-12-01 16:00:00,56.9,39.0,29.94,ESE,119,0.0,0.0,51,0.00,,---,0.00,VWS V14.01,2013-12-01 21:00:00,
2013-12-01 16:10:00,56.7,39.8,29.94,ESE,119,0.0,0.0,53,0.00,,---,0.00,VWS V14.01,2013-12-01 21:10:00,
2013-12-01 16:20:00,56.6,39.7,29.94,ESE,117,0.0,0.0,53,0.00,,---,0.00,VWS V14.01,2013-12-01 21:20:00,
2013-12-01 16:30:00,56.3,39.4,29.93,ESE,119,0.0,0.0,53,0.00,,---,0.00,VWS V14.01,2013-12-01 21:30:00,
2013-12-01 16:40:00,56.0,39.6,29.93,ESE,119,0.0,0.0,54,0.00,,---,0.00,VWS V14.01,2013-12-01 21:40:00,
2013-12-01 16:50:00,55.6,39.7,29.93,ESE,119,0.0,0.0,55,0.00,,---,0.00,VWS V14.01,2013-12-01 21:50:00,
2013-12-01 17:00:00,54.8,39.9,29.93,ESE,117,0.0,0.0,57,0.00,,---,0.00,VWS V14.01,2013-12-01 22:00:00,
2013-12-01 17:10:00,54.4,40.0,29.93,ESE,119,0.0,0.0,58,0.00,,---,0.00,VWS V14.01,2013-12-01 22:10:00,
2013-12-01 17:20:00,53.8,39.4,29.93,ESE,119,0.0,0.0,58,0.00,,---,0.00,VWS V14.01,2013-12-01 22:20:00,
2013-12-01 17:30:00,53.3,38.9,29.93,ESE,119,0.0,0.0,58,0.00,,---,0.00,VWS V14.01,2013-12-01 22:30:00,
2013-12-01 17:40:00,53.3,39.3,29.93,ESE,119,0.0,0.0,59,0.00,,---,0.00,VWS V14.01,2013-12-01 22:40:00,
2013-12-01 17:50:00,53.3,39.8,29.93,ESE,119,0.0,0.0,60,0.00,,---,0.00,VWS V14.01,2013-12-01 22:50:00,
2013-12-01 18:00:00,53.2,39.7,29.93,ESE,117,0.0,0.0,60,0.00,,---,0.00,VWS V14.01,2013-12-01 23:00:00,
2013-12-01 18:10:00,52.9,40.2,29.93,ESE,119,0.0,0.0,62,0.00,,---,0.00,VWS V14.01,2013-12-01 23:10:00,
2013-12-01 18:20:00,52.3,40.5,29.93,ESE,117,0.0,0.0,64,0.00,,---,0.00,VWS V14.01,2013-12-01 23:20:00,
2013-12-01 18:30:00,51.7,40.7,29.93,ESE,119,0.0,0.0,66,0.00,,---,0.00,VWS V14.01,2013-12-01 23:30:00,
2013-12-01 18:40:00,51.4,40.4,29.93,ESE,119,0.0,0.0,66,0.00,,---,0.00,VWS V14.01,2013-12-01 23:40:00,
2013-12-01 18:50:00,51.1,40.5,29.93,ESE,117,0.0,0.0,67,0.00,,---,0.00,VWS V14.01,2013-12-01 23:50:00,
2013-12-01 19:00:00,50.8,40.6,29.93,ESE,119,0.0,0.0,68,0.00,,---,0.00,VWS V14.01,2013-12-02 00:00:00,
2013-12-01 19:10:00,50.8,41.0,29.93,ESE,117,0.0,0.0,69,0.00,,---,0.00,VWS V14.01,2013-12-02 00:10:00,
2013-12-01 19:20:00,50.8,41.4,29.93,ESE,117,0.0,0.0,70,0.00,,---,0.00,VWS V14.01,2013-12-02 00:20:00,
2013-12-01 19:30:00,50.5,41.5,29.93,ESE,117,0.0,0.0,71,0.00,,---,0.00,VWS V14.01,2013-12-02 00:30:00,
2013-12-01 19:40:00,50.4,42.8,29.93,ESE,117,0.0,0.0,75,0.00,,---,0.00,VWS V14.01,2013-12-02 00:40:00,
2013-12-01 19:50:00,50.1,42.8,29.92,ESE,117,0.0,0.0,76,0.00,,---,0.00,VWS V14.01,2013-12-02 00:50:00,
2013-12-01 20:00:00,49.9,43.3,29.92,ESE,117,0.0,0.0,78,0.00,,---,0.00,VWS V14.01,2013-12-02 01:00:00,
2013-12-01 20:10:00,49.6,43.7,29.92,ESE,117,0.0,0.0,80,0.00,,---,0.00,VWS V14.01,2013-12-02 01:10:00,
2013-12-01 20:20:00,49.2,43.6,29.91,ESE,117,0.0,0.0,81,0.00,,---,0.00,VWS V14.01,2013-12-02 01:20:00,
2013-12-01 20:30:00,49.1,43.8,29.91,ESE,117,0.0,0.0,82,0.00,,---,0.00,VWS V14.01,2013-12-02 01:30:00,
2013-12-01 20:40:00,48.9,44.0,29.91,ESE,117,0.0,0.0,83,0.00,,---,0.00,VWS V14.01,2013-12-02 01:40:00,
2013-12-01 20:50:00,48.3,44.0,29.91,ESE,117,0.0,0.0,85,0.00,,---,0.00,VWS V14.01,2013-12-02 01:50:00,
2013-12-01 21:00:00,48.0,44.0,29.91,ESE,117,0.0,0.0,86,0.00,,---,0.00,VWS V14.01,2013-12-02 02:00:00,
2013-12-01 21:10:00,47.4,43.7,29.91,ESE,117,0.0,0.0,87,0.00,,---,0.00,VWS V14.01,2013-12-02 02:10:00,
2013-12-01 21:20:00,47.1,43.7,29.91,ESE,117,0.0,0.0,88,0.00,,---,0.00,VWS V14.01,2013-12-02 02:20:00,
2013-12-01 21:30:00,46.7,43.6,29.91,ESE,117,0.0,0.0,89,0.00,,---,0.00,VWS V14.01,2013-12-02 02:30:00,
2013-12-01 21:40:00,46.2,43.7,29.91,ESE,117,0.0,0.0,91,0.00,,---,0.00,VWS V14.01,2013-12-02 02:40:00,
2013-12-01 21:50:00,45.5,43.3,29.91,ESE,117,0.0,0.0,92,0.00,,---,0.00,VWS V14.01,2013-12-02 02:50:00,
2013-12-01 22:00:00,45.4,43.5,29.90,ESE,117,0.0,0.0,93,0.00,,---,0.00,VWS V14.01,2013-12-02 03:00:00,
2013-12-01 22:10:00,44.9,43.3,29.90,ESE,117,0.0,0.0,94,0.00,,---,0.00,VWS V14.01,2013-12-02 03:10:00,
2013-12-01 22:20:00,44.6,43.0,29.90,ESE,117,0.0,0.0,94,0.00,,---,0.00,VWS V14.01,2013-12-02 03:20:00,
2013-12-01 22:30:00,44.5,43.2,29.89,ESE,117,0.0,0.0,95,0.00,,---,0.00,VWS V14.01,2013-12-02 03:30:00,
2013-12-01 22:40:00,44.3,43.2,29.89,ESE,117,0.0,0.0,96,0.00,,---,0.00,VWS V14.01,2013-12-02 03:40:00,
2013-12-01 22:50:00,44.3,43.2,29.89,ESE,117,0.0,0.0,96,0.00,,---,0.00,VWS V14.01,2013-12-02 03:50:00,
2013-12-01 23:00:00,44.6,43.5,29.89,ESE,117,0.0,0.0,96,0.00,,---,0.00,VWS V14.01,2013-12-02 04:00:00,
2013-12-01 23:10:00,44.5,43.7,29.89,ESE,117,0.0,0.0,97,0.00,,---,0.00,VWS V14.01,2013-12-02 04:10:00,
2013-12-01 23:20:00,44.3,43.2,29.89,ESE,117,0.0,0.0,96,0.00,,---,0.00,VWS V14.01,2013-12-02 04:20:00,
2013-12-01 23:30:00,44.2,43.1,29.89,ESE,117,0.0,0.0,96,0.00,,---,0.00,VWS V14.01,2013-12-02 04:30:00,
2013-12-01 23:40:00,44.2,43.4,29.89,ESE,117,0.0,0.0,97,0.00,,---,0.00,VWS V14.01,2013-12-02 04:40:00,
2013-12-01 23:50:00,43.6,42.8,29.88,ESE,117,0.0,0.0,97,0.00,,---,0.00,VWS V14.01,2013-12-02 04:50:00,